Bay City, WI

2:51 PM CST on February 26, 2017 (GMT -0600)
Red Wing Municipal

Weather History for KRGK - November, 2013

Change the Weather History Date:

Thursday, November 21, 2013

  Actual Average Record
Temperature  
Mean Temperature 32 °F -  
Max Temperature 39 °F 38 °F 66 °F (2012)
Min Temperature 24 °F 23 °F -4 °F (2014)
Degree Days  
Heating Degree Days 34    
Moisture  
Dew Point 30 °F    
Average Humidity 92    
Maximum Humidity 100    
Minimum Humidity 80    
Precipitation  
Precipitation 0.00 in - - ()
Sea Level Pressure  
Sea Level Pressure 30.23 in    
Wind  
Wind Speed 3 mph (NNW)    
Max Wind Speed 15 mph    
Max Gust Speed 22 mph    
Visibility 3 miles    
Events Fog , Snow    
Averages and records for this station are not official NWS values.
T = Trace of Precipitation, MM = Missing Value Source: NWS Daily Summary

Daily Weather History Graph

Daily Weather History Graph

Search for Another Location

Airport or City:

Trip Planner

Search our weather history database for the weather conditions in past years. The results will help you decide how hot, cold, wet, or windy it might be!

Date:

Astronomy

Nov. 21, 2013 Rise Set
Actual Time 7:14 AM CST 4:36 PM CST
Civil Twilight 6:42 AM CST 5:08 PM CST
Nautical Twilight 6:06 AM CST 5:44 PM CST
Astronomical Twilight 5:32 AM CST 6:19 PM CST
Moon 8:15 PM CST (11/21) 10:20 AM CST (11/21)
Length of Visible Light 10h 26m
Length of Day
9h 21m
Waning Gibbous, 85% of the Moon is Illuminated
Nov 21
Waning Gibbous
Nov 25
Last Quarter
Dec 2
New
Dec 9
First Quarter
Dec 17
Full

Hourly Weather History & Observations

Time (CST) Temp. Windchill Dew Point Humidity Pressure Visibility Wind Dir Wind Speed Gust Speed Precip Events Conditions
12:15 AM 35.6 °F 31.7 °F 33.8 °F 93% 30.04 in 1.0 mi SE 4.6 mph - N/A   Overcast
12:35 AM 35.6 °F 32.8 °F 33.8 °F 93% 30.04 in 1.0 mi SE 3.5 mph - N/A   Overcast
12:55 AM 35.6 °F 32.8 °F 35.6 °F 100% 30.04 in 1.0 mi SE 3.5 mph - N/A   Overcast
1:15 AM 35.6 °F - 35.6 °F 100% 30.05 in 1.0 mi Calm Calm - N/A   Overcast
1:35 AM 35.6 °F - 35.6 °F 100% 30.06 in 1.0 mi Calm Calm - N/A   Overcast
1:55 AM 35.6 °F - 35.6 °F 100% 30.07 in 1.0 mi Calm Calm - N/A   Overcast
2:15 AM 35.6 °F - 35.6 °F 100% 30.07 in 1.0 mi Calm Calm - N/A   Overcast
2:35 AM 35.6 °F - 35.6 °F 100% 30.08 in 1.0 mi Calm Calm - N/A   Overcast
2:55 AM 35.6 °F - 35.6 °F 100% 30.08 in 1.0 mi Calm Calm - N/A   Overcast
3:15 AM 35.6 °F - 35.6 °F 100% 30.08 in 1.0 mi Calm Calm - N/A   Overcast
3:35 AM 35.6 °F - 35.6 °F 100% 30.07 in 1.0 mi Calm Calm - N/A   Overcast
3:55 AM 35.6 °F - 35.6 °F 100% 30.07 in 1.0 mi Calm Calm - N/A   Overcast
4:15 AM 35.6 °F - 35.6 °F 100% 30.07 in 1.2 mi Calm Calm - N/A   Overcast
4:35 AM 35.6 °F - 35.6 °F 100% 30.08 in 1.0 mi Calm Calm - N/A   Overcast
4:55 AM 35.6 °F - 35.6 °F 100% 30.09 in 1.2 mi Calm Calm - N/A   Overcast
5:15 AM 35.6 °F - 35.6 °F 100% 30.10 in 1.0 mi Calm Calm - N/A   Overcast
5:35 AM 35.6 °F - 35.6 °F 100% 30.10 in 1.0 mi Calm Calm - N/A   Overcast
5:55 AM 35.6 °F - 35.6 °F 100% 30.10 in 0.8 mi Calm Calm - N/A   Overcast
6:15 AM 35.6 °F - 35.6 °F 100% 30.11 in 1.0 mi Calm Calm - N/A   Overcast
6:35 AM 35.6 °F - 35.6 °F 100% 30.11 in 1.0 mi Calm Calm - N/A   Overcast
6:55 AM 35.6 °F - 35.6 °F 100% 30.13 in 1.0 mi Calm Calm - N/A   Overcast
7:15 AM 35.6 °F - 35.6 °F 100% 30.13 in 1.0 mi Calm Calm - N/A   Overcast
7:35 AM 37.4 °F - 35.6 °F 93% 30.14 in 1.0 mi Calm Calm - N/A   Overcast
7:55 AM 37.4 °F - 35.6 °F 93% 30.14 in 0.8 mi Calm Calm - N/A   Overcast
8:15 AM 37.4 °F - 35.6 °F 93% 30.15 in 0.8 mi Calm Calm - N/A   Overcast
8:35 AM 37.4 °F - 35.6 °F 93% 30.16 in 0.8 mi Calm Calm - N/A   Overcast
8:55 AM 37.4 °F - 35.6 °F 93% 30.17 in 0.5 mi Calm Calm - N/A Fog Fog
9:15 AM 37.4 °F - 35.6 °F 93% 30.17 in 0.2 mi Calm Calm - N/A Fog Fog
9:35 AM 37.4 °F - 37.4 °F 100% 30.17 in 0.2 mi Calm Calm - N/A Fog Fog
9:55 AM 37.4 °F - 37.4 °F 100% 30.18 in 0.5 mi Calm Calm - N/A Fog Fog
10:15 AM 37.4 °F - 37.4 °F 100% 30.18 in 0.8 mi Calm Calm - N/A   Overcast
10:35 AM 39.2 °F - 37.4 °F 93% 30.18 in 0.8 mi Calm Calm - N/A   Overcast
10:55 AM 37.4 °F 29.8 °F 35.6 °F 93% 30.19 in 1.0 mi NNW 11.5 mph - N/A   Drizzle
11:15 AM 35.6 °F 28.0 °F 33.8 °F 93% 30.20 in 1.2 mi NW 10.4 mph - N/A   Light Drizzle
11:34 AM 33.8 °F 26.4 °F 33.8 °F 100% 30.22 in 1.0 mi WNW 9.2 mph - N/A   Drizzle
1:42 PM - - - N/A% - - North - - N/A   Unknown
1:55 PM 30.2 °F 22.6 °F 30.2 °F 100% 30.24 in 4.0 mi NNW 8.1 mph - N/A   Mist
2:15 PM 32.0 °F 25.6 °F 30.2 °F 93% 30.25 in 5.0 mi NNW 6.9 mph - N/A   Overcast
2:35 PM 32.0 °F 26.4 °F 30.2 °F 93% 30.25 in 7.0 mi NNW 5.8 mph - N/A   Overcast
2:55 PM 30.2 °F 22.6 °F 28.4 °F 93% 30.26 in 4.0 mi NNW 8.1 mph - N/A   Overcast
3:15 PM 30.2 °F 23.4 °F 28.4 °F 93% 30.27 in 4.0 mi NNW 6.9 mph - N/A   Overcast
3:35 PM 30.2 °F 23.4 °F 28.4 °F 93% 30.28 in 4.0 mi NNW 6.9 mph - N/A   Overcast
3:55 PM 30.2 °F 21.3 °F 26.6 °F 86% 30.29 in 4.0 mi North 10.4 mph - N/A Snow Light Snow
4:15 PM 30.2 °F 23.4 °F 26.6 °F 86% 30.30 in 3.0 mi North 6.9 mph - N/A Snow Light Snow
4:35 PM 28.4 °F 21.2 °F 24.8 °F 86% 30.31 in 7.0 mi North 6.9 mph 17.3 mph N/A Snow Light Snow
4:55 PM 28.4 °F 20.4 °F 24.8 °F 86% 30.32 in 10.0 mi North 8.1 mph - N/A Snow Light Snow
5:15 PM 28.4 °F 19.7 °F 24.8 °F 86% 30.33 in 3.0 mi North 9.2 mph 17.3 mph N/A Snow Light Snow
5:35 PM 28.4 °F 20.4 °F 24.8 °F 86% 30.33 in 7.0 mi North 8.1 mph 16.1 mph N/A Snow Light Snow
5:55 PM 28.4 °F 22.2 °F 24.8 °F 86% 30.34 in 10.0 mi North 5.8 mph 17.3 mph N/A   Overcast
6:15 PM 28.4 °F 17.0 °F 24.8 °F 86% 30.35 in 10.0 mi North 15.0 mph 21.9 mph N/A   Overcast
6:35 PM 28.4 °F 20.4 °F 23.0 °F 80% 30.36 in 10.0 mi North 8.1 mph 17.3 mph N/A   Overcast
6:55 PM 28.4 °F 21.2 °F 24.8 °F 86% 30.37 in 7.0 mi North 6.9 mph - N/A Snow Light Snow
7:15 PM 28.4 °F 21.2 °F 24.8 °F 86% 30.37 in 10.0 mi NNW 6.9 mph - N/A   Overcast
7:35 PM 28.4 °F 19.1 °F 24.8 °F 86% 30.38 in 10.0 mi North 10.4 mph - N/A   Overcast
7:55 PM 28.4 °F 21.2 °F 23.0 °F 80% 30.38 in 10.0 mi North 6.9 mph - N/A   Overcast
8:15 PM 28.4 °F 19.7 °F 23.0 °F 80% 30.39 in 7.0 mi North 9.2 mph - N/A Snow Light Snow
8:35 PM 28.4 °F 21.2 °F 23.0 °F 80% 30.40 in 3.0 mi NNW 6.9 mph - N/A Snow Light Snow
8:55 PM 28.4 °F 22.2 °F 24.8 °F 86% 30.41 in 2.5 mi NNW 5.8 mph - N/A Snow Light Snow
9:15 PM 28.4 °F 22.2 °F 23.0 °F 80% 30.41 in 3.0 mi NNW 5.8 mph - N/A Snow Light Snow
9:35 PM 26.6 °F 19.1 °F 23.0 °F 86% 30.41 in 2.5 mi NNW 6.9 mph - N/A Snow Light Snow
9:55 PM 26.6 °F 18.2 °F 23.0 °F 86% 30.42 in 4.0 mi North 8.1 mph - N/A Snow Light Snow
10:15 PM 26.6 °F 16.2 °F 21.2 °F 80% 30.42 in 3.0 mi North 11.5 mph 16.1 mph N/A Snow Light Snow
10:35 PM 26.6 °F 18.2 °F 21.2 °F 80% 30.42 in 4.0 mi North 8.1 mph - N/A Snow Light Snow
10:55 PM 26.6 °F 17.5 °F 21.2 °F 80% 30.44 in 3.0 mi NNW 9.2 mph - N/A Snow Light Snow
11:15 PM 26.6 °F 18.2 °F 21.2 °F 80% 30.45 in 3.0 mi NNW 8.1 mph - N/A Snow Light Snow
11:35 PM 24.8 °F 15.3 °F 21.2 °F 86% 30.46 in 2.0 mi NNW 9.2 mph 18.4 mph N/A Snow Light Snow
11:55 PM 24.8 °F 16.9 °F 21.2 °F 86% 30.47 in 1.8 mi North 6.9 mph - N/A Snow Light Snow